Westminster, MD

3:28 PM EDT on July 22, 2017 (GMT -0400)
Carroll County Regional-Poage

Weather History for KDMW - October, 2013

Change the Weather History Date:

Thursday, October 31, 2013

  Actual Average (KTHV) Record (KTHV)
Temperature  
Mean Temperature 60 °F -  
Max Temperature 68 °F 0 °F 75 °F (1999)
Min Temperature 53 °F - 24 °F (2011)
Degree Days  
Heating Degree Days 4    
Growing Degree Days 10 (Base 50)    
Moisture  
Dew Point 57 °F    
Average Humidity 91    
Maximum Humidity 100    
Minimum Humidity 78    
Precipitation  
Precipitation 0.01 in - - ()
Sea Level Pressure  
Sea Level Pressure 30.02 in    
Wind  
Wind Speed 7 mph (SSE)    
Max Wind Speed 16 mph    
Max Gust Speed 23 mph    
Visibility 6 miles    
Events Rain    
Averages and records for this station are not official NWS values.
T = Trace of Precipitation, MM = Missing Value Source: NWS Daily Summary

Daily Weather History Graph

Daily Weather History Graph

Search for Another Location

Airport or City:

Trip Planner

Search our weather history database for the weather conditions in past years. The results will help you decide how hot, cold, wet, or windy it might be!

Date:

Astronomy

Oct. 31, 2013 Rise Set
Actual Time 7:35 AM EDT 6:07 PM EDT
Civil Twilight 7:07 AM EDT 6:34 PM EDT
Nautical Twilight 6:35 AM EDT 7:06 PM EDT
Astronomical Twilight 6:04 AM EDT 7:38 PM EDT
Moon 4:23 AM EDT (10/31) 4:23 PM EDT (10/31)
Length of Visible Light 11h 27m
Length of Day
10h 31m
Waning Crescent, 10% of the Moon is Illuminated
Oct 31
Waning Crescent
Nov 3
New
Nov 10
First Quarter
Nov 17
Full
Nov 25
Last Quarter

Hourly Weather History & Observations

Time (EDT) Temp. Dew Point Humidity Pressure Visibility Wind Dir Wind Speed Gust Speed Precip Events Conditions
12:10 AM 55.4 °F 51.8 °F 88% 30.20 in 2.5 mi SE 4.6 mph - N/A   Mostly Cloudy
12:30 AM 53.6 °F 51.8 °F 94% 30.20 in 2.0 mi SE 3.5 mph - N/A   Overcast
12:50 AM 53.6 °F 51.8 °F 94% 30.19 in 2.0 mi SE 4.6 mph - N/A   Overcast
1:10 AM 53.6 °F 51.8 °F 94% 30.18 in 1.8 mi SE 5.8 mph - N/A   Overcast
1:30 AM 53.6 °F 51.8 °F 94% 30.17 in 1.2 mi SE 6.9 mph - N/A   Overcast
1:50 AM 53.6 °F 51.8 °F 94% 30.18 in 1.5 mi SE 4.6 mph - N/A   Overcast
2:10 AM 53.6 °F 51.8 °F 94% 30.18 in 1.8 mi SE 3.5 mph - N/A   Overcast
2:30 AM 53.6 °F 51.8 °F 94% 30.18 in 2.0 mi SE 5.8 mph - N/A   Overcast
2:50 AM 53.6 °F 51.8 °F 94% 30.18 in 2.5 mi SE 5.8 mph - N/A   Mostly Cloudy
3:10 AM 53.6 °F 51.8 °F 94% 30.18 in 2.0 mi Calm Calm - N/A   Overcast
3:30 AM 53.6 °F 51.8 °F 94% 30.17 in 2.5 mi Calm Calm - 0.01 in   Overcast
3:50 AM 53.6 °F 51.8 °F 94% 30.16 in 2.5 mi SE 3.5 mph - N/A   Mostly Cloudy
4:10 AM 53.6 °F 51.8 °F 94% 30.15 in 2.5 mi SE 4.6 mph - N/A   Mostly Cloudy
4:30 AM 53.6 °F 51.8 °F 94% 30.15 in 2.0 mi SE 9.2 mph - N/A   Overcast
4:50 AM 53.6 °F 51.8 °F 94% 30.14 in 2.0 mi SE 6.9 mph - N/A   Overcast
5:10 AM 53.6 °F 51.8 °F 94% 30.14 in 2.0 mi SE 4.6 mph - N/A   Overcast
5:30 AM 53.6 °F 51.8 °F 94% 30.14 in 1.8 mi SSE 4.6 mph - N/A   Overcast
5:50 AM 53.6 °F 51.8 °F 94% 30.14 in 1.5 mi SSE 5.8 mph - N/A   Overcast
6:10 AM 53.6 °F 53.6 °F 100% 30.13 in 1.5 mi SSE 3.5 mph - N/A   Overcast
6:30 AM 53.6 °F 51.8 °F 94% 30.13 in 1.0 mi SE 3.5 mph - N/A   Overcast
6:50 AM 53.6 °F 51.8 °F 94% 30.13 in 0.8 mi Calm Calm - N/A   Overcast
7:10 AM 53.6 °F 51.8 °F 94% 30.12 in 1.5 mi SE 4.6 mph - N/A   Overcast
7:30 AM 53.6 °F 53.6 °F 100% 30.12 in 1.8 mi SE 5.8 mph - N/A   Overcast
7:50 AM 53.6 °F 51.8 °F 94% 30.12 in 1.0 mi SSE 3.5 mph - N/A   Overcast
8:10 AM 55.4 °F 53.6 °F 94% 30.13 in 1.2 mi SSE 4.6 mph - N/A Rain Rain
8:30 AM 53.6 °F 53.6 °F 100% 30.12 in 1.0 mi SE 6.9 mph - N/A Rain Light Rain
8:50 AM 53.6 °F 53.6 °F 100% 30.11 in 1.0 mi SE 6.9 mph - N/A   Overcast
9:10 AM 55.4 °F 53.6 °F 94% 30.11 in 1.0 mi South 3.5 mph - N/A   Overcast
9:30 AM 55.4 °F 55.4 °F 100% 30.10 in 1.8 mi SSE 8.1 mph - N/A   Mostly Cloudy
9:50 AM 57.2 °F 55.4 °F 94% 30.10 in 2.5 mi South 9.2 mph - N/A   Mostly Cloudy
10:10 AM 57.2 °F 55.4 °F 94% 30.09 in 3.0 mi South 6.9 mph - N/A   Mostly Cloudy
10:30 AM 57.2 °F 55.4 °F 94% 30.08 in 2.5 mi South 9.2 mph - N/A   Overcast
10:50 AM 57.2 °F 55.4 °F 94% 30.07 in 2.5 mi South 8.1 mph - N/A   Overcast
11:10 AM 60.8 °F 57.2 °F 88% 30.06 in 3.0 mi South 6.9 mph - N/A   Mostly Cloudy
11:30 AM 60.8 °F 57.2 °F 88% 30.05 in 4.0 mi South 8.1 mph - N/A   Scattered Clouds
11:50 AM 62.6 °F 59.0 °F 88% 30.05 in 5.0 mi SSW 5.8 mph - N/A   Clear
12:10 PM 62.6 °F 60.8 °F 94% 30.04 in 7.0 mi South 6.9 mph - N/A   Clear
12:30 PM 64.4 °F 60.8 °F 88% 30.03 in 7.0 mi South 8.1 mph - N/A   Clear
12:50 PM 64.4 °F 60.8 °F 88% 30.02 in 10.0 mi South 9.2 mph - N/A   Clear
1:10 PM 66.2 °F 60.8 °F 83% 30.01 in 10.0 mi South 8.1 mph - N/A   Clear
1:30 PM 66.2 °F 60.8 °F 83% 30.00 in 10.0 mi South 9.2 mph - N/A   Clear
1:50 PM 66.2 °F 60.8 °F 83% 29.99 in 10.0 mi South 10.4 mph - N/A   Clear
2:10 PM 68.0 °F 60.8 °F 78% 29.97 in 10.0 mi South 11.5 mph 17.3 mph N/A   Clear
2:30 PM 66.2 °F 60.8 °F 83% 29.97 in 10.0 mi South 9.2 mph 18.4 mph N/A   Scattered Clouds
2:50 PM 66.2 °F 60.8 °F 83% 29.97 in 10.0 mi South 8.1 mph 16.1 mph N/A   Clear
3:10 PM 66.2 °F 60.8 °F 83% 29.96 in 10.0 mi South 11.5 mph 17.3 mph N/A   Clear
3:30 PM 66.2 °F 60.8 °F 83% 29.94 in 10.0 mi South 11.5 mph 18.4 mph N/A   Light Drizzle
3:50 PM 66.2 °F 59.0 °F 78% 29.94 in 10.0 mi South 12.7 mph 16.1 mph N/A   Clear
4:10 PM 66.2 °F 59.0 °F 78% 29.92 in 10.0 mi South 12.7 mph - N/A   Clear
4:30 PM 66.2 °F 60.8 °F 83% 29.92 in 10.0 mi South 12.7 mph - N/A   Clear
4:45 PM 66.2 °F 60.8 °F 83% 29.91 in 10.0 mi South 13.8 mph 19.6 mph N/A   Clear
5:10 PM 66.2 °F 60.8 °F 83% 29.91 in 10.0 mi South 16.1 mph 21.9 mph N/A   Clear
5:30 PM 66.2 °F 60.8 °F 83% 29.92 in 10.0 mi South 11.5 mph 18.4 mph N/A   Clear
5:50 PM 66.2 °F 60.8 °F 83% 29.90 in 10.0 mi South 12.7 mph 18.4 mph N/A   Clear
6:10 PM 64.4 °F 60.8 °F 88% 29.91 in 10.0 mi South 10.4 mph 17.3 mph N/A   Clear
6:30 PM 64.4 °F 60.8 °F 88% 29.91 in 10.0 mi South 12.7 mph 19.6 mph N/A   Clear
6:50 PM 64.4 °F 60.8 °F 88% 29.90 in 10.0 mi South 11.5 mph 18.4 mph N/A   Scattered Clouds
7:10 PM 64.4 °F 60.8 °F 88% 29.91 in 10.0 mi South 9.2 mph - N/A Rain Light Rain
7:30 PM 64.4 °F 60.8 °F 88% 29.91 in 10.0 mi South 10.4 mph - N/A Rain Light Rain
7:50 PM 62.6 °F 60.8 °F 94% 29.92 in 10.0 mi South 11.5 mph 19.6 mph N/A Rain Light Rain
8:10 PM 62.6 °F 60.8 °F 94% 29.90 in 7.0 mi South 13.8 mph 18.4 mph N/A Rain Light Rain
8:30 PM 62.6 °F 60.8 °F 94% 29.88 in 7.0 mi South 13.8 mph - N/A Rain Light Rain
8:50 PM 62.6 °F 60.8 °F 94% 29.87 in 7.0 mi South 13.8 mph - N/A Rain Rain
9:10 PM 62.6 °F 60.8 °F 94% 29.86 in 7.0 mi South 13.8 mph - N/A   Light Drizzle
9:30 PM 62.6 °F 60.8 °F 94% 29.86 in 7.0 mi South 15.0 mph 18.4 mph N/A Rain Light Rain
9:50 PM 62.6 °F 60.8 °F 94% 29.84 in 10.0 mi South 12.7 mph 21.9 mph N/A   Scattered Clouds
10:10 PM 62.6 °F 60.8 °F 94% 29.84 in 10.0 mi South 12.7 mph 18.4 mph N/A Rain Light Rain
10:30 PM 62.6 °F 60.8 °F 94% 29.82 in 10.0 mi South 16.1 mph 21.9 mph N/A   Scattered Clouds
10:50 PM 62.6 °F 60.8 °F 94% 29.82 in 10.0 mi South 15.0 mph 23.0 mph N/A Rain Light Rain
11:10 PM 62.6 °F 60.8 °F 94% 29.81 in 10.0 mi South 13.8 mph 18.4 mph N/A Rain Light Rain
11:30 PM 62.6 °F 60.8 °F 94% 29.80 in 10.0 mi South 13.8 mph 20.7 mph N/A   Scattered Clouds
11:50 PM 62.6 °F 60.8 °F 94% 29.78 in 10.0 mi South 15.0 mph 21.9 mph N/A   Clear